time,DIC,TA,TEMPERATURE,SALINITY
UTC,micromoles per kilogram (umol kg-1),micromoles per kilogram (umol kg-1),degrees Celsius,practical salinity scale
2012-04-09T13:04:00Z,1963.6,1944.97,8.75,28.13
2012-04-09T14:28:28Z,1832.73,1867.85,9.97,27.04
2012-04-09T16:08:28Z,1853.24,1971.5,10.98,28.53
2012-04-09T17:34:28Z,1857.67,1993.94,11.63,28.87
2012-04-09T19:50:28Z,1873.48,1998.21,11.71,29.09
2012-04-09T22:14:28Z,1829.58,1937.16,12.74,28.98
2012-04-09T23:39:28Z,1836.88,1919.72,12.13,28.83
2012-04-10T01:32:28Z,1719.97,1770.14,11.05,26.54
2012-07-20T11:38:00Z,2294.14,2210.25,23.05,31.93
2012-07-20T12:39:00Z,2198.81,2168.46,23.88,31.62
2012-07-20T14:35:00Z,2144.85,2130.09,24.07,31.91
2012-07-20T16:35:00Z,2190.81,2133.52,23.83,31.92
2012-07-20T18:41:00Z,2122.33,2111.19,24.09,31.94
2012-07-20T19:34:00Z,2182.37,2130.4,24.08,31.96
2012-07-20T20:38:00Z,2331.13,2181.94,23.69,31.92
2012-07-20T21:35:00Z,2292.79,2211.03,23.53,31.88
2012-07-20T22:36:00Z,2318.71,2238.11,23.3,31.8
2012-07-20T23:38:00Z,2401.63,2279.87,23.02,31.75
2012-07-21T00:33:00Z,2174.44,2155.55,23.29,31.8
2012-11-15T13:01:28Z,1900.7,1935.16,8.86,16.95
2012-11-15T14:06:28Z,1898.59,1949.0,8.89,17.46
2012-11-15T14:59:28Z,1889.95,1973.36,8.54,17.64
2012-11-15T15:58:27Z,1888.05,1993.37,8.51,18.05
2012-11-15T17:10:27Z,1882.16,2013.61,8.61,18.31
2012-11-15T18:10:27Z,1886.53,1999.3,8.61,18.36
2012-11-15T18:59:27Z,1890.44,1981.95,8.54,18.22
2012-11-15T20:00:27Z,1892.63,1950.72,8.51,25.81
2012-11-15T21:01:27Z,1893.15,1934.64,8.51,25.43
2012-11-15T22:01:26Z,1908.73,1929.7,8.38,25.18
2012-11-15T23:07:26Z,1958.1,1938.72,8.13,24.84
2012-11-15T23:59:41Z,2023.61,1962.23,8.04,24.71
2013-06-04T20:05:00Z,1607.91,1755.23,22.61,8.84
2013-06-04T20:47:00Z,1460.88,1577.85,23.08,9.56
2013-06-04T21:26:00Z,1592.63,1747.16,22.93,13.25
2013-06-06T16:46:00Z,1489.02,1791.58,21.22,18.26
2013-06-06T17:25:00Z,1500.96,1855.27,21.57,18.97
2013-06-06T18:17:00Z,1489.45,1802.58,22.51,18.88
2013-06-06T18:58:00Z,1486.18,1815.26,22.33,18.55
2013-06-06T19:27:00Z,1463.32,1803.76,22.75,18.53
2013-06-06T19:54:00Z,1469.85,1822.06,22.78,18.8
2013-06-12T12:32:00Z,1731.82,1730.94,18.92,20.91
2013-06-12T13:39:00Z,1691.1,1722.73,19.79,19.33
2013-06-12T15:08:00Z,1727.41,1736.45,19.76,19.05
2013-06-12T16:38:00Z,1545.01,1693.73,19.82,23.71
2013-06-12T18:05:00Z,1567.92,1696.32,20.04,23.78
2013-06-12T19:42:00Z,1511.75,1722.49,20.45,24.59
2013-06-12T21:34:00Z,1517.82,1758.67,20.7,25.75
2013-06-12T22:38:00Z,1493.97,1760.25,20.87,26.21
2013-06-13T00:10:00Z,1530.99,1739.72,20.79,25.88
2013-06-13T01:12:00Z,1490.32,1718.35,20.53,23.62
2013-07-10T12:42:00Z,2400.04,2190.24,25.57,27.98
2013-07-10T14:14:00Z,2073.98,2029.38,25.99,28.07
2013-07-10T15:35:00Z,1977.83,1998.24,26.39,27.34
2013-07-10T17:09:00Z,1895.21,1991.04,27.04,27.02
2013-07-10T18:45:00Z,1756.34,1938.81,27.58,27.6
2013-07-10T20:17:00Z,1839.5,1937.84,27.74,27.94
2013-07-10T21:32:00Z,2025.14,1971.93,28.08,28.01
2013-07-10T23:07:00Z,2007.97,1938.31,28.11,28.06
2013-07-11T00:40:00Z,1975.3,2006.59,27.18,28.36
2013-07-11T01:38:00Z,1909.46,1933.9,26.61,27.67
2013-08-21T10:10:00Z,2312.29,2082.42,22.05,28.3
2013-08-21T11:37:00Z,2548.9,2255.38,21.72,28.29
2013-08-21T13:15:00Z,1990.39,1954.66,23.41,28.68
2013-08-21T14:42:00Z,1879.32,1933.61,23.92,28.96
2013-08-21T16:09:00Z,1812.35,1935.13,24.73,28.77
2013-08-21T17:36:00Z,1783.31,1921.75,25.38,29.11
2013-08-21T19:04:00Z,1845.48,1851.55,28.62,28.49
2013-08-21T20:33:00Z,1752.23,NaN,29.54,28.46
2013-08-21T22:07:00Z,1941.33,1832.3,29.02,28.34
2013-08-21T23:07:00Z,2123.67,1995.75,27.98,28.31
2013-10-22T13:18:00Z,1885.62,1885.33,13.6,29.09
2013-10-22T14:45:00Z,1841.72,1881.72,14.32,29.16
2013-10-22T16:10:00Z,1787.52,1898.43,14.58,29.61
2013-10-22T17:33:00Z,1811.12,1902.08,14.8,29.63
2013-10-22T19:06:00Z,1796.07,1905.02,14.99,29.77
2013-10-22T20:41:00Z,1823.17,1908.31,15.29,29.8
2013-10-22T22:10:00Z,1868.68,1893.67,15.61,29.75
2013-10-22T23:38:00Z,1894.24,1892.87,15.5,29.72
2013-10-23T00:49:00Z,1948.22,NaN,15.24,29.62
2013-10-23T01:32:00Z,2025.29,1945.41,14.97,29.59
2014-07-17T12:49:00Z,1989.36,1998.32,22.7,27.7
2014-07-17T13:37:00Z,1981.17,1992.99,23.35,27.88
2014-07-17T14:41:00Z,1954.62,2005.98,23.69,27.88
2014-07-17T15:39:00Z,1904.94,2006.4,24.72,27.89
2014-07-17T16:54:00Z,1811.18,1988.45,24.96,27.92
2014-07-17T17:46:00Z,1798.39,1984.11,25.44,27.92
2014-07-17T18:44:00Z,1899.88,1957.89,25.68,27.93
2014-07-17T19:44:00Z,1877.59,1949.11,25.88,29.1
2014-07-17T20:38:00Z,1855.43,1946.41,26.0,28.95
2014-07-17T21:53:00Z,1836.59,1952.72,25.94,28.35
2014-07-17T21:55:00Z,1831.06,1952.36,25.94,28.35
2014-07-17T22:47:00Z,1941.46,1942.13,25.84,29.2
2014-07-17T23:46:00Z,1942.37,1888.42,25.75,28.8
2014-07-17T23:48:00Z,1944.37,1886.28,25.74,28.2
2014-07-18T00:52:00Z,1969.81,1908.34,25.93,27.68
2014-12-10T18:49:00Z,1785.57,1852.65,6.39,27.58
2014-12-10T20:05:00Z,1799.43,1883.1,6.36,27.69
2014-12-10T20:39:00Z,1796.57,1869.76,6.44,27.56
2014-12-10T21:20:00Z,1775.7,1837.94,6.63,27.14
2014-12-16T14:14:00Z,1661.1,1681.52,4.41,24.62
2014-12-16T14:47:00Z,1686.74,1676.67,4.49,24.22
2014-12-16T15:54:00Z,1685.46,1677.48,4.73,24.23
2014-12-16T16:52:00Z,1744.05,1841.8,4.85,24.1
2014-12-16T19:00:00Z,1760.75,1853.74,5.04,26.42
2014-12-16T19:45:00Z,1815.78,1893.59,5.05,26.9
2014-12-16T20:24:00Z,1792.9,1878.0,4.96,26.71
2014-12-16T21:15:00Z,1731.74,1824.31,5.21,25.68
2014-12-16T21:59:00Z,1769.03,1853.06,5.06,26.26
2014-12-16T22:55:00Z,1806.21,1902.06,5.17,27.37
2014-12-17T00:19:00Z,1822.32,1928.75,5.32,27.89
2014-12-17T00:57:00Z,1820.34,1945.58,5.29,28.05
2014-12-17T21:40:00Z,1681.96,1646.9,7.52,21.42
2014-12-17T22:17:00Z,1639.19,1634.11,7.25,21.91
2014-12-17T22:58:00Z,1631.91,1641.56,7.21,21.41
2015-04-17T11:06:00Z,1688.01,1670.3,10.0,23.31
2015-04-17T12:14:00Z,1582.81,1596.57,10.36,22.52
2015-04-17T13:35:00Z,1697.38,1767.6,10.92,24.77
2015-04-17T15:06:00Z,1738.02,1831.16,11.15,26.28
2015-04-17T16:30:00Z,1708.8,1785.51,10.96,24.5
2015-04-17T17:43:00Z,1635.03,1673.02,10.84,22.54
2015-04-17T19:05:00Z,1676.43,1750.17,10.94,25.05
2015-04-17T20:20:00Z,1535.96,NaN,11.13,21.56
2015-04-17T21:48:00Z,1454.78,1376.36,11.18,20.1
2015-04-17T22:59:00Z,1452.05,1394.35,10.87,19.45
2015-04-30T11:47:00Z,1945.14,2021.3,11.79,29.32
2015-04-30T12:57:00Z,2010.31,2093.07,12.1,29.86
2015-04-30T14:07:00Z,2062.15,2109.05,12.57,30.22
2015-04-30T15:28:00Z,2014.65,NaN,12.86,30.1
2015-04-30T16:53:00Z,1979.32,2084.8,14.23,30.14
2015-04-30T18:13:00Z,1940.62,2050.22,14.63,29.68
2015-04-30T19:34:00Z,1927.28,2009.29,15.35,29.66
2015-04-30T19:42:00Z,1938.48,2022.49,15.72,29.74
2015-04-30T20:53:00Z,1880.75,2037.05,15.27,29.46
2015-04-30T22:08:00Z,1857.94,2044.28,15.19,29.87
2015-04-30T23:28:00Z,1854.22,2036.75,14.49,29.53
2015-04-30T23:35:00Z,1861.75,2035.43,14.44,29.52
2015-07-21T10:43:00Z,2112.09,2047.32,25.86,30.91
2015-07-21T11:55:00Z,2264.77,2128.46,25.41,30.89
2015-07-21T13:14:00Z,2335.31,2171.86,25.77,30.84
2015-07-21T13:16:00Z,2313.81,2170.49,25.79,30.84
2015-07-21T14:31:00Z,2324.39,2206.2,26.54,30.81
2015-07-21T15:54:00Z,2016.22,2065.78,27.04,31.12
2015-07-21T17:16:00Z,1916.83,2036.07,27.58,31.2
2015-07-21T18:34:00Z,1788.08,2019.82,27.67,31.31
2015-07-21T19:56:00Z,1916.68,2032.68,28.45,31.04
2015-07-21T21:20:00Z,1832.57,2015.36,28.56,31.15
2015-07-21T22:37:00Z,1875.57,2016.77,28.59,31.17
2015-07-30T10:41:00Z,2423.32,2232.33,24.16,30.52
2015-07-30T11:48:00Z,2059.92,2005.77,24.73,30.8
2015-07-30T13:13:00Z,1990.5,1991.18,25.33,31.0
2015-07-30T13:16:00Z,2009.4,1990.25,25.35,31.03
2015-07-30T14:32:00Z,2010.2,1981.36,25.99,31.08
2015-07-30T15:50:00Z,1935.35,2010.87,26.59,31.63
2015-07-30T17:12:00Z,1917.89,1996.51,27.38,31.64
2015-07-30T18:33:00Z,1887.45,1977.59,28.3,31.42
2015-07-30T19:51:00Z,1862.28,1981.76,28.26,31.69
2015-07-30T21:11:00Z,1863.27,1960.41,28.56,31.24
2015-07-30T22:29:00Z,1949.12,1976.98,28.27,30.66
2015-10-07T10:39:00Z,1812.27,1822.8,14.24,28.95
2015-10-07T11:54:00Z,1797.21,1824.81,14.63,29.11
2015-10-07T11:57:00Z,1800.62,1824.71,14.64,29.11
2015-10-07T13:14:00Z,1772.41,1817.95,14.74,29.14
2015-10-07T14:35:00Z,1750.4,1783.92,14.81,28.77
2015-10-07T15:54:00Z,1800.08,1789.68,15.86,28.73
2015-10-07T17:21:00Z,1760.7,1807.61,17.54,28.8
2015-10-07T18:42:00Z,1758.03,1806.82,16.61,28.91
2015-10-07T20:02:00Z,1702.47,1803.5,16.84,28.95
2015-10-07T21:17:00Z,1654.04,1748.18,16.83,28.44
2015-10-07T22:35:00Z,1652.59,1734.85,16.67,28.28
2015-10-27T11:14:00Z,2064.42,2044.19,9.97,29.97
2015-10-27T12:29:00Z,1898.12,1990.0,11.45,30.33
2015-10-27T12:31:00Z,1896.2,1992.1,11.45,30.33
2015-10-27T13:45:00Z,1871.27,1977.4,10.95,30.25
2015-10-27T15:12:00Z,1849.91,1976.72,10.81,30.28
2015-10-27T16:30:00Z,1829.95,1979.19,11.33,30.37
2015-10-27T18:00:00Z,1808.89,1948.86,13.29,30.31
2015-10-27T19:12:00Z,1847.43,1935.94,13.84,30.26
2015-10-27T20:35:00Z,1849.28,1933.52,13.69,30.18
2015-10-27T21:55:00Z,1940.84,1928.41,12.96,30.06
2015-10-27T23:12:00Z,1989.4,2001.72,12.28,29.96
2015-11-09T20:57:00Z,1366.85,1330.34,10.95,21.59
2015-11-09T21:45:00Z,1415.06,1368.58,10.93,22.25
2015-11-16T17:35:00Z,1723.82,1831.57,9.22,28.42
2015-11-16T18:42:00Z,1544.32,1584.87,9.22,28.02
2015-11-16T19:27:00Z,1689.58,1761.91,9.29,27.24
2015-11-16T20:10:00Z,1732.49,1836.41,9.38,28.19
2015-11-16T20:58:00Z,1681.92,1758.01,9.45,27.5
2015-11-18T12:05:00Z,1896.47,1924.85,8.12,29.17
2015-11-18T13:22:00Z,1880.65,1926.18,8.2,29.15
2015-11-18T13:25:00Z,1891.53,1931.17,8.24,29.15
2015-11-18T14:38:00Z,1868.17,1941.92,8.74,29.3
2015-11-18T16:00:00Z,1898.13,1979.86,10.38,29.98
2015-11-18T17:20:00Z,1836.86,1955.96,10.11,29.51
2015-11-18T18:40:00Z,1763.26,1856.05,9.6,28.34
2015-11-18T19:59:00Z,1766.63,1949.26,10.89,29.67
2015-11-18T21:18:00Z,1753.53,1935.48,10.6,29.7
2015-11-18T22:39:00Z,1777.25,1898.58,10.06,29.3
2015-11-18T23:59:00Z,1804.11,1887.0,9.39,28.96
2015-11-25T16:37:00Z,1762.34,1876.17,6.27,28.17
2015-11-25T17:07:00Z,1756.07,1833.27,6.77,27.72
2015-11-25T17:25:00Z,1750.45,1809.56,6.76,27.17
2015-12-03T20:21:00Z,1761.19,1721.59,9.87,23.86
2015-12-03T20:54:00Z,1778.25,1720.1,9.78,26.39
2015-12-03T21:21:00Z,1773.5,1708.2,9.36,26.24
2015-12-09T17:45:00Z,1782.49,1855.23,8.05,28.27
2015-12-09T18:16:00Z,1785.8,1858.66,8.15,28.26
2015-12-09T18:45:00Z,1787.35,1856.23,8.17,28.28
2015-12-10T16:00:00Z,1855.24,1950.02,7.75,29.41
2015-12-10T17:00:00Z,1844.17,1949.32,8.25,29.2
2015-12-10T18:00:00Z,1819.01,1914.63,9.79,29.06
2015-12-10T19:00:00Z,1802.46,1893.49,10.17,28.94
2015-12-10T20:00:00Z,1797.67,1883.17,10.3,28.89
2015-12-10T21:00:00Z,1809.33,1876.42,10.15,28.83
2015-12-10T22:00:00Z,1867.31,1870.54,9.85,28.64
2015-12-10T23:00:00Z,1940.18,1887.95,8.99,29.12
2015-12-16T16:45:00Z,1853.65,1944.48,10.3,29.26
2015-12-16T18:37:00Z,1851.06,1953.09,10.13,29.41
2015-12-16T19:32:00Z,1838.37,1948.62,10.04,29.35
